Location: Grasslands National Park East Block
(49.0708°N, 106.5295°W)
Time: 05:28:47
(UTC-06:00)

Vanguard 1 Rocket - Pass Details

Date: 25 September 2019
Orbit: 650 x 4226 km, 34.3° (Epoch: 13 October)

Event Time Altitude Azimuth Distance (km) Brightness Sun altitude
Rises 17:09:51 0° 227° (SW) 8,429 13.7 16.5°
Reaches altitude 10° 17:16:18 10° 221° (SW) 7,421 13.3 15.5°
Maximum altitude 17:38:26 42° 162° (SSE) 4,422 11.0 12.0°
Drops below altitude 10° 17:53:09 10° 99° (E) 5,094 10.7 9.7°
Sets 17:56:33 0° 92° (E) 5,693 10.8 9.1°
